SBSTSBFL

Guest
Details From SBST - BASE AEREA DE SANTOS
To SBFL - Hercillo Luz
Flight Number -
Tags decoded
Created
Modified
Stats Distance 8,449 nm / 15,648 km
Max Altitude 0 ft / 0 m
Waypoints 3
Social Downloads 0
Likes 0
Share VATSIM

Download

Looking for another format? Having issues loading an existing format? Contact us
Advertisement - Login to hide

Notes

Requested: SBST COBRA INGOT NVG ONIX SBFL Unmatched points: ONIX

Route

SBST INGOT SBFL

ID Type Via Altitude Latitude Longitude Leg Dist Tot Dist Heading (true) Name
O SBST APT - 0 ft / 0 m -23.92520˚ -46.28750˚ - 0 nm - BASE AEREA DE SANTOS
INGOT FIX - 0 ft / 0 m 29.87430˚ -92.25543˚ 4178 nm 4178 nm 318° / 315° -
O SBFL APT - 0 ft / 0 m -27.67049˚ -48.54718˚ 4270 nm 8449 nm 140° / 141° Hercillo Luz

Altitude Profile

Advertisement - Login to hide

Weather


0- 5 10 15 20 25 30 35+ Temperature / ° C

Clouds and Precipitation
Forecast for 2017-12-18 12:00 UTC. Updated an hour ago

Ground ~20,000 ft ~40,000 ft Winds

SBST

Details ICAO SBST (SSZ)
Name BASE AEREA DE SANTOS
Region Brazil
Timezone America/Sao_Paulo (UTC-2.0)
Stats Elevation 10 ft / 3 m (AMSL)
Location -23.925204° -46.287498°
Runways 1
Magnetic Variation 21.407° W

METAR

SBST 181200Z 24006KT 210V270 9000 FEW020 BKN030 28/24 Q1016

Decode

TAF

Not found

Departure Runways

ID Width Length Bearing (true) Bearing (mag) Surface Threshold Offset Overrun Length
17 148 ft / 45 m 4,574 ft / 1,394 m 148.78° 170.19° Asphalt 0 ft / 0 m 0 ft / 0 m
35 148 ft / 45 m 4,574 ft / 1,394 m 328.78° 350.19° Asphalt 0 ft / 0 m 0 ft / 0 m

SBFL

Details ICAO SBFL (FLN)
Name Hercillo Luz
Region Brazil
Timezone America/Sao_Paulo (UTC-2.0)
Stats Elevation 19 ft / 6 m (AMSL)
Location -27.670487° -48.547180°
Runways 2
Magnetic Variation 19.322° W

METAR

SBFL 181200Z 21006KT 9999 VCSH BKN014 BKN030 24/21 Q1017

Decode

TAF

TAF SBFL 180845Z 1812/1912 18015KT 9999 SCT030 TX24/1817Z TN20/1908Z BECMG 1814/1816 13014KT SCT015 BKN020 RMK PEB

Decode

Destination Runways

ID Width Length Bearing (true) Bearing (mag) Surface Threshold Offset Overrun Length
03 148 ft / 45 m 4,939 ft / 1,505 m 11.55° 30.87° Concrete 0 ft / 0 m 0 ft / 0 m
14 148 ft / 45 m 7,543 ft / 2,299 m 121.30° 140.62° Asphalt 720 ft / 219 m 0 ft / 0 m
21 148 ft / 45 m 4,939 ft / 1,505 m 191.55° 210.87° Concrete 0 ft / 0 m 0 ft / 0 m
32 148 ft / 45 m 7,543 ft / 2,299 m 301.29° 320.61° Asphalt 0 ft / 0 m 200 ft / 61 m

Approach Navaids

Runway Type Ident Frequency Range Bearing (true) Bearing (mag) Slope Elevation
14 Localiser IFL 110.30 MHz 18 nm / 33 km 121.67° 140.99° - 19 ft / 6 m (AMSL)
14 Glidescope IFL 110.30 MHz 10 nm / 19 km 121.29° 140.61° 3.00° 19 ft / 6 m (AMSL)

Popular Alternatives